CW3224 Weather Reports


Display with metric or nautical units.
time (UTC)temp
F
wind
direction
speed
MPH
gust
MPH
rain 1hr
in
rain 24hr
in
rain mn
in
humidity
%
barometer
mb
20260507155625 62 19 3.0 9.0 0.00 0.24 0.02 54 1007.1
20260507155532 61 285 3.0 8.0 0.00 0.24 0.02 56 1007.1
20260507153624 60 212 2.0 6.0 0.00 0.24 0.02 60 1007.4
20260507152625 60 301 2.0 6.0 0.00 0.24 0.02 58 1007.4
20260507152110 59 276 2.0 7.0 0.00 0.24 0.02 63 1007.4
20260507151106 58 148 2.0 5.0 0.00 0.24 0.02 62 1007.6
20260507145616 58 268 1.0 4.0 0.00 0.24 0.02 63 1007.6
20260507145058 58 279 3.0 7.0 0.00 0.24 0.02 63 1007.6
20260507143615 58 246 3.0 6.0 0.00 0.24 0.02 69 1007.6
20260507142614 57 208 2.0 7.0 0.00 0.24 0.02 69 1007.6
20260507141613 56 266 3.0 7.0 0.00 0.24 0.02 68 1007.6
20260507140614 56 301 1.0 4.0 0.00 0.24 0.02 74 1007.6
20260507135614 55 301 1.0 5.0 0.00 0.24 0.02 72 1007.6
20260507134612 55 73 2.0 5.0 0.00 0.24 0.02 72 1007.6
20260507134100 54 154 1.0 6.0 0.00 0.24 0.02 75 1007.5
20260507132610 54 193 2.0 5.0 0.00 0.24 0.02 77 1007.6
20260507132044 53 56 2.0 5.0 0.00 0.24 0.02 78 1007.6
20260507130609 52 73 2.0 5.0 0.00 0.24 0.02 80 1007.8
20260507125608 51 296 1.0 5.0 0.00 0.24 0.02 82 1007.8
20260507124607 51 301 2.0 5.0 0.00 0.24 0.02 84 1007.8
20260507123559 50 44 2.0 7.0 0.00 0.24 0.02 84 1008.0
20260507122601 49 2 3.0 6.0 0.00 0.24 0.02 85 1008.1
20260507121558 49 34 1.0 5.0 0.00 0.24 0.02 87 1008.1
20260507120558 48 98 1.0 3.0 0.00 0.24 0.02 89 1008.1
20260507115559 48 221 1.0 4.0 0.00 0.24 0.02 90 1008.0
20260507114548 47 301 0.0 0.0 0.00 0.24 0.02 91 1008.0
20260507113549 47 301 0.0 0.0 0.00 0.24 0.02 91 1008.0
20260507112546 47 301 0.0 0.0 0.00 0.24 0.02 91 1007.8
20260507111547 47 133 0.0 0.0 0.00 0.24 0.02 91 1007.8
20260507110532 46 301 0.0 0.0 0.00 0.24 0.02 91 1007.7
20260507105532 46 133 0.0 0.0 0.00 0.24 0.02 91 1007.8
20260507104533 46 133 0.0 0.0 0.00 0.24 0.02 90 1007.8
20260507103530 46 133 0.0 0.0 0.00 0.24 0.02 90 1007.1
20260507102529 46 133 0.0 0.0 0.00 0.24 0.02 90 1007.2
20260507101529 46 301 0.0 0.0 0.00 0.24 0.02 90 1007.2
20260507100531 46 301 0.0 2.0 0.00 0.24 0.02 90 1007.1
20260507095528 47 301 0.0 1.0 0.00 0.24 0.02 90 1007.1
20260507094528 47 301 1.0 2.0 0.00 0.24 0.02 90 1007.1
20260507093525 47 301 0.0 0.0 0.00 0.24 0.02 90 1007.4
20260507092525 47 134 0.0 1.0 0.00 0.24 0.02 90 1007.5
20260507091523 47 301 0.0 2.0 0.00 0.24 0.02 90 1007.5
20260507091347 47 301 0.0 2.0 0.00 0.24 0.02 90 1007.3
20260507090536 47 301 0.0 1.0 0.00 0.24 0.02 90 1007.5
20260507084509 47 301 0.0 0.0 0.00 0.24 0.02 90 1007.6
20260507083511 48 301 0.0 0.0 0.01 0.24 0.02 90 1007.6
20260507082510 48 301 0.0 1.0 0.01 0.24 0.02 90 1007.2
20260507081510 48 301 0.0 0.0 0.01 0.24 0.02 91 1007.1
20260507080510 49 133 0.0 1.0 0.01 0.24 0.02 91 1007.1
20260507075500 49 301 0.0 3.0 0.01 0.24 0.02 91 1007.1
20260507074501 49 119 0.0 1.0 0.01 0.24 0.02 91 1007.5
20260507073943 49 301 0.0 0.0 0.00 0.23 0.01 91 1007.5
20260507072457 50 301 0.0 0.0 0.00 0.23 0.01 91 1006.6
20260507071934 50 301 0.0 0.0 0.00 0.23 0.01 91 1006.6
20260507070455 50 301 0.0 1.0 0.00 0.23 0.01 91 1006.6
20260507065456 51 301 0.0 0.0 0.00 0.23 0.01 91 1006.4
20260507064456 51 117 0.0 2.0 0.00 0.23 0.01 91 1006.5
20260507063455 51 117 0.0 2.0 0.00 0.23 0.01 91 1006.5
20260507062455 51 112 0.0 0.0 0.00 0.23 0.01 91 1006.5
20260507061456 51 112 0.0 0.0 0.00 0.23 0.01 91 1006.5
20260507060446 52 112 0.0 0.0 0.00 0.23 0.01 91 1006.5
20260507055445 52 112 0.0 0.0 0.00 0.23 0.01 92 1006.5
20260507054446 52 112 0.0 0.0 0.00 0.23 0.01 91 1007.1
20260507053929 53 112 0.0 0.0 0.00 0.23 0.01 92 1007.1
20260507052446 53 112 0.0 0.0 0.00 0.23 0.01 92 1006.6
20260507051446 53 112 0.0 0.0 0.01 0.23 0.01 92 1007.1
20260507050912 54 112 0.0 1.0 0.01 0.23 0.01 92 1007.1
20260507045435 54 112 0.0 3.0 0.01 0.23 0.01 92 1006.6
20260507044435 54 301 0.0 0.0 0.02 0.23 0.01 92 1006.6
20260507043435 55 301 0.0 0.0 0.03 0.23 0.01 92 1006.6
20260507042436 55 301 0.0 0.0 0.03 0.23 0.01 92 1006.6
20260507041436 55 301 0.0 0.0 0.02 0.22 0.00 92 1006.7
20260507040434 56 301 0.0 0.0 0.02 0.22 0.00 92 1006.7
20260507035430 56 296 0.0 0.0 0.02 0.22 0.22 93 1006.5
20260507034430 56 301 1.0 3.0 0.01 0.21 0.21 93 1006.2
20260507033432 57 271 0.0 0.0 0.00 0.20 0.20 93 1006.2
20260507032431 57 270 0.0 2.0 0.01 0.20 0.20 93 1006.0
20260507031431 57 270 1.0 4.0 0.01 0.20 0.20 93 1005.5
20260507030429 58 301 1.0 6.0 0.01 0.20 0.20 93 1005.5
20260507025429 58 301 0.0 5.0 0.01 0.20 0.20 93 1005.5
20260507024429 58 301 0.0 0.0 0.01 0.20 0.20 93 1005.5
20260507023428 58 198 2.0 5.0 0.01 0.20 0.20 93 1005.5
20260507022430 58 184 1.0 3.0 0.00 0.19 0.19 93 1005.5
20260507021426 58 183 0.0 3.0 0.00 0.19 0.19 93 1005.1
20260507020903 58 197 1.0 4.0 0.00 0.19 0.19 93 1005.1
20260507015426 58 203 0.0 3.0 0.00 0.19 0.19 93 1005.4
20260507014904 58 202 1.0 4.0 0.00 0.19 0.19 93 1005.3
20260507013426 58 204 1.0 4.0 0.00 0.19 0.19 93 1005.3
20260507012428 58 195 2.0 6.0 0.00 0.19 0.19 93 1005.3
20260507011844 58 217 3.0 8.0 0.00 0.19 0.19 93 1005.4
20260507011452 58 185 3.0 7.0 0.00 0.19 0.19 93 1005.4
20260507005415 58 189 3.0 7.0 0.00 0.19 0.19 93 1005.5
20260507004416 58 156 3.0 9.0 0.00 0.19 0.19 93 1005.2
20260507003416 58 190 3.0 10.0 0.00 0.19 0.19 93 1005.2
20260507002416 58 231 2.0 7.0 0.00 0.19 0.19 93 1005.0
20260507001417 58 194 2.0 6.0 0.00 0.19 0.19 92 1005.2
20260507000414 58 200 2.0 9.0 0.01 0.19 0.19 93 1005.2
20260506235414 58 167 2.0 5.0 0.02 0.19 0.19 92 1005.0
20260506234414 58 177 2.0 7.0 0.03 0.19 0.19 92 1005.0
20260506233415 58 206 2.0 7.0 0.04 0.19 0.19 92 1005.0
20260506232415 58 202 2.0 5.0 0.05 0.19 0.19 92 1005.0
20260506231415 58 198 3.0 8.0 0.06 0.19 0.19 92 1005.0
20260506230415 58 218 3.0 7.0 0.07 0.18 0.19 92 1005.0
20260506225415 58 158 3.0 7.0 0.08 0.17 0.17 92 1005.1
20260506225346 58 202 3.0 7.0 0.08 0.16 0.16 91 1005.1
20260506223414 59 193 3.0 8.0 0.09 0.15 0.15 92 1005.1
20260506222854 59 206 4.0 13.0 0.08 0.14 0.14 91 1005.2
20260506221413 59 172 3.0 8.0 0.07 0.13 0.13 91 1005.4
20260506220414 59 183 4.0 10.0 0.05 0.11 0.11 91 1005.4
20260506215414 59 148 5.0 10.0 0.03 0.09 0.09 90 1005.5
20260506214415 59 200 4.0 10.0 0.02 0.08 0.08 90 1005.5
20260506213413 60 301 3.0 8.0 0.00 0.06 0.06 90 1005.5
20260506212414 60 301 4.0 12.0 0.01 0.06 0.06 90 1005.6
20260506211411 60 301 4.0 11.0 0.01 0.06 0.06 90 1005.7
20260506210412 60 212 4.0 9.0 0.02 0.06 0.06 89 1005.7
20260506205412 60 207 3.0 11.0 0.03 0.06 0.06 89 1006.0
20260506204413 60 201 4.0 12.0 0.03 0.06 0.06 89 1006.0
20260506203402 60 301 5.0 13.0 0.03 0.06 0.06 88 1006.0
20260506202404 61 195 4.0 10.0 0.02 0.05 0.05 88 1006.1
20260506201359 61 301 5.0 12.0 0.03 0.05 0.05 87 1006.1
20260506200401 62 301 5.0 10.0 0.02 0.04 0.04 87 1006.1
20260506195352 62 135 5.0 11.0 0.01 0.03 0.03 86 1006.0
20260506194353 62 216 4.0 9.0 0.02 0.03 0.03 86 1006.1
20260506193835 63 210 2.0 10.0 0.03 0.03 0.03 86 1006.1
20260506192829 63 251 3.0 8.0 0.03 0.03 0.03 85 1006.1
20260506191352 63 212 4.0 11.0 0.02 0.02 0.02 84 1006.1
20260506190351 64 196 3.0 11.0 0.02 0.02 0.02 83 1006.1
20260506185351 65 195 5.0 12.0 0.02 0.02 0.02 81 1006.3
20260506184352 66 200 4.0 11.0 0.01 0.01 0.01 78 1006.5
20260506183826 67 199 4.0 10.0 0.00 0.00 0.01 76 1006.5
20260506182349 68 253 3.0 12.0 0.00 0.00 0.00 72 1006.5
20260506181349 69 212 4.0 9.0 0.00 0.00 0.00 70 1006.5
20260506180831 70 225 7.0 19.0 0.00 0.00 0.00 66 1006.5
20260506175351 70 211 6.0 19.0 0.00 0.00 0.00 65 1006.5
20260506174348 71 301 7.0 19.0 0.00 0.00 0.00 63 1006.5
20260506173347 72 208 7.0 16.0 0.00 0.00 0.00 61 1006.5
20260506172345 72 301 5.0 17.0 0.00 0.00 0.00 60 1006.5
20260506171346 72 126 4.0 12.0 0.00 0.00 0.00 61 1006.5
20260506170346 72 199 5.0 11.0 0.00 0.00 0.00 62 1006.5
20260506165344 72 208 4.0 11.0 0.00 0.00 0.00 63 1006.7
20260506164344 71 301 5.0 15.0 0.00 0.00 0.00 64 1007.0
20260506163343 70 233 6.0 12.0 0.00 0.00 0.00 64 1007.0
20260506162341 70 218 6.0 15.0 0.00 0.00 0.00 64 1007.2
20260506161342 70 226 7.0 14.0 0.00 0.00 0.00 65 1007.5
20260506160341 70 232 5.0 17.0 0.00 0.00 0.00 66 1007.5
20260506155816 69 190 5.0 12.0 0.00 0.00 0.00 67 1007.7